map of MEC home
Great Circle Mapper logo
MEC - Airport
Location
City:  Manta, Manabí, Ecuador
Name:Eloy Alfaro International Airport
ICAO / IATA:SEMT / MEC

Details
Type:Airport (Aerodrome, Airfield)
Use:Public/Civil, Military, International (customs port of entry)
Latitude:0°56'46"S (-0.946077)
Longitude:80°40'44"W (-80.678807)
Datum:WGS 1984
Elevation:48 ft (15 m)
Variation:1.4°W (WMM2015 magnetic declination)
Runways:1
Longest:9383 × 148 ft (2860 × 45 m), paved

Time
Time Zone:UTC-5
Local Time:

Weather
METAR:SEMT 201500Z 19010KT 9999 SCT020 27/21 Q1012 RMK A2991
TAF:SEMT 200420Z 2006/2106 19005KT 9999 BKN020
FM201300 21010KT 9999 SCT020 SCT090
FM201900 26012KT 9999 FEW030
FM210000 22008KT 9999 FEW023 SCT090 TX30/2020Z TN23/2010Z

Related Locations
Nearby:
Farthest:AEG: 12443 mi / 20025 km
Padang Sidempuan [Aek Godang], Sumatra, ID

Find:

   beyond  
but within

Other Information
Maps:
NOTAMs:
Links:
Sources:

  
flag of Ecuador   

Airport Diagram

Airport diagram for MEC

Airport diagram (OBSOLETE) from NGA

Sectional Chart

Flight Planning
at skyvector.com

Satellite Image

Google Maps Satellite View

 

Copyright © 2004-2014 Karl L. Swartz. All rights reserved.
The Great Circle Mapper name and logo are trademarks of the Great Circle Mapper.
All other trademarks mentioned herein belong to their respective owners.
Please see credits for attibutions and further copyright information.

  Follow gcmap on Facebook Follow gcmap on Twitter

hCard Microformat

Geo Microformat